Location: Greenhawk Observatory
(37.3417°N, 122.0298°W)
Time: 23:29:04
(UTC-07:00)

Envisat - Visible Passes

Search period start: 23 September 2018 00:00
Search period end: 03 October 2018 00:00
Orbit: 764 x 766 km, 98.2° (Epoch: 23 September)

Date Brightness Start Highest point End Pass type
(mag) Time Alt. Az. Time Alt. Az. Time Alt. Az.
23 Sep 3.4 19:37:24 10° SE 19:42:06 40° ENE 19:46:50 10° N visible
23 Sep 5.4 21:17:28 10° SW 21:21:14 21° W 21:25:02 10° NW visible
24 Sep 3.9 20:39:25 10° S 20:44:18 48° W 20:49:14 10° NNW visible
25 Sep 2.9 20:02:31 10° SSE 20:07:34 73° ENE 20:12:38 10° N visible
25 Sep 6.0 21:45:40 10° WSW 21:47:04 11° W 21:48:26 10° WNW visible
26 Sep 3.7 19:26:33 10° SE 19:31:00 32° ENE 19:35:28 10° N visible
26 Sep 5.0 21:05:45 10° SSW 21:09:59 27° W 21:14:15 10° NW visible
27 Sep 3.4 20:28:05 10° S 20:33:06 62° W 20:38:09 10° NNW visible
28 Sep 3.1 19:51:28 10° SSE 19:56:25 57° ENE 20:01:23 10° N visible
28 Sep 5.8 21:33:00 10° SW 21:35:45 15° W 21:38:32 10° WNW visible
29 Sep 4.0 19:15:49 10° ESE 19:19:55 25° ENE 19:24:02 10° NNE visible
29 Sep 4.6 20:54:11 10° SSW 20:58:45 34° W 21:03:21 10° NNW visible
30 Sep 3.1 20:16:51 10° S 20:21:55 80° WSW 20:27:01 10° NNW visible
01 Oct 3.3 19:40:30 10° SE 19:45:17 44° ENE 19:50:06 10° N visible
01 Oct 5.5 21:20:57 10° SW 21:24:29 19° W 21:28:02 10° NW visible
02 Oct 4.1 20:42:42 10° S 20:47:31 43° W 20:52:22 10° NNW visible
